Location: The Saddle
(36.8333°N, 80.3417°W)
Time: 02:30:00
(UTC-04:00)

Vanguard 3 - Pass Details

Date: 17 May 2026
Orbit: 507 x 3204 km, 33.3° (Epoch: 9 June)

Event Time Altitude Azimuth Distance (km) Brightness Sun altitude
Rises 13:59:10 0° 238° (WSW) 6,093 11.9 70.4°
Reaches altitude 10° 14:02:47 10° 235° (SW) 5,356 11.8 70.0°
Maximum altitude 14:19:59 66° 158° (SSE) 3,378 11.8 67.9°
Drops below altitude 10° 14:38:42 10° 82° (E) 5,769 11.4 65.2°
Sets 14:42:45 0° 80° (E) 6,564 11.5 64.6°
